Location: Roussillon
(43.9008°N, 5.2947°E)
Time: 06:37:10
(UTC+00:00)

NOSS 2-1 (E) - Pass Details

Date: 07 June 2020
Orbit: 446 x 1757 km, 63.3° (Epoch: 25 June)

Event Time Altitude Azimuth Distance (km) Brightness Sun altitude
Exits shadow 02:05:20 25° 255° (WSW) 937 4.1 -15.2°
Maximum altitude 02:06:52 43° 312° (NW) 650 3.7 -15.1°
Drops below altitude 10° 02:10:22 10° 26° (NNE) 1,701 7.2 -14.7°
Sets 02:12:46 0° 33° (NNE) 2,706 8.8 -14.4°
